Location: ?????
(44.4284°N, 135.2222°E)
Time: 09:39:45
(UTC+00:00)

Meteor 1-22 Rocket - Pass Details

Date: 19 May 2025
Orbit: 787 x 938 km, 81.2° (Epoch: 12 June)

Event Time Altitude Azimuth Distance (km) Brightness Sun altitude
Rises 16:02:06 0° 348° (NNW) 3,354 8.3 -23.9°
Reaches altitude 10° 16:04:32 10° 347° (NNW) 2,401 7.3 -23.8°
Maximum altitude 16:09:55 77° 263° (W) 819 4.0 -23.4°
Enters shadow 16:10:50 60° 196° (SSW) 903 4.0 -23.4°
